QPF
0.00 0.00 0.00 0.00 0.00 0.00 0.00 0.00 0.00 0.00 0.00 0.00 0.00 0.00 0.00 0.00 0.00 0.00 0.00 0.00 0.00 0.00 0.01 0.04 0.05 0.06 0.08 0.10 0.08 0.07 0.06 0.04
0.00 0.00 0.00 0.00 0.00 0.00 0.00 0.00 0.00 0.00 0.00 0.00 0.00 0.00 0.00 0.00 0.00 0.00 0.00 0.00 0.00 0.00 0.00 0.00 0.00 0.01 0.03 0.04 0.03 0.02 0.02 0.04
0.00 0.00 0.00 0.00 0.00 0.00 0.00 0.00 0.00 0.00 0.00 0.00 0.00 0.00 0.00 0.00 0.00 0.00 0.00 0.00 0.00 0.00 0.00 0.00 0.00 0.00 0.00 0.00 0.00 0.01 0.01 0.02
0.00 0.00 0.00 0.00 0.00 0.00 0.00 0.00 0.00 0.00 0.00 0.00 0.00 0.00 0.00 0.00 0.00 0.00 0.00 0.00 0.00 0.00 0.00 0.00 0.00 0.00 0.00 0.00 0.00 0.00 0.01 0.01
0.00 0.00 0.00 0.00 0.00 0.00 0.00 0.00 0.00 0.00 0.00 0.00 0.00 0.00 0.00 0.00 0.00 0.00 0.00 0.00 0.00 0.00 0.00 0.00 0.00 0.00 0.00 0.00 0.00 0.00 0.00 0.00
0.00 0.00 0.00 0.00 0.00 0.00 0.00 0.00 0.00 0.00 0.00 0.00 0.00 0.00 0.00 0.00 0.00 0.00 0.00 0.00 0.00 0.00 0.00 0.00 0.00 0.00 0.00 0.00 0.00 0.00 0.00 0.00
0.00 0.00 0.00 0.00 0.00 0.00 0.00 0.00 0.00 0.00 0.00 0.00 0.00 0.00 0.00 0.00 0.00 0.00 0.00 0.00 0.00 0.00 0.00 0.00 0.00 0.00 0.00 0.00 0.00 0.00 0.00 0.00
0.00 0.00 0.00 0.00 0.00 0.00 0.00 0.00 0.00 0.00 0.00 0.00 0.00 0.00 0.00 0.00 0.00 0.00 0.00 0.00 0.00 0.00 0.00 0.00 0.00 0.00 0.00 0.00 0.00 0.00 0.00 0.00
0.00 0.00 0.00 0.00 0.00 0.00 0.00 0.00 0.00 0.00 0.00 0.00 0.00 0.00 0.00 0.00 0.00 0.00 0.00 0.00 0.00 0.00 0.00 0.00 0.00 0.00 0.00 0.00 0.00 0.00 0.00 0.01
0.00 0.00 0.00 0.00 0.00 0.00 0.00 0.00 0.00 0.00 0.00 0.00 0.00 0.00 0.00 0.00 0.00 0.00 0.00 0.00 0.00 0.00 0.00 0.00 0.00 0.00 0.00 0.00 0.00 0.00 0.00 0.00
0.00 0.00 0.00 0.00 0.00 0.00 0.00 0.00 0.00 0.00 0.00 0.00 0.00 0.00 0.00 0.00 0.00 0.00 0.00 0.00 0.00 0.00 0.00 0.00 0.00 0.00 0.00 0.00 0.00 0.00 0.00 0.00
0.00 0.00 0.00 0.00 0.00 0.00 0.00 0.00 0.00 0.00 0.00 0.00 0.00 0.00 0.00 0.00 0.00 0.00 0.00 0.00 0.00 0.00 0.00 0.00 0.00 0.00 0.00 0.00 0.00 0.00 0.00 0.00
0.00 0.00 0.00 0.00 0.00 0.00 0.00 0.00 0.00 0.00 0.00 0.00 0.00 0.00 0.00 0.00 0.00 0.00 0.00 0.00 0.00 0.00 0.00 0.00 0.00 0.00 0.00 0.00 0.00 0.00 0.00 0.00
0.00 0.00 0.00 0.00 0.00 0.00 0.00 0.00 0.00 0.00 0.00 0.00 0.00 0.00 0.00 0.00 0.00 0.00 0.00 0.00 0.00 0.00 0.00 0.00 0.00 0.00 0.00 0.00 0.00 0.00 0.00 0.00
0.00 0.00 0.00 0.00 0.00 0.00 0.00 0.00 0.00 0.00 0.00 0.00 0.00 0.00 0.00 0.00 0.00 0.00 0.00 0.00 0.00 0.00 0.00 0.00 0.00 0.00 0.00 0.00 0.00 0.00 0.00 0.01
0.00 0.00 0.00 0.00 0.00 0.00 0.00 0.00 0.00 0.00 0.00 0.00 0.00 0.00 0.00 0.00 0.00 0.00 0.00 0.00 0.00 0.00 0.00 0.00 0.00 0.00 0.00 0.00 0.00 0.00 0.01 0.01
0.00 0.00 0.00 0.00 0.00 0.00 0.00 0.00 0.00 0.00 0.00 0.00 0.00 0.00 0.00 0.00 0.00 0.00 0.00 0.00 0.00 0.00 0.00 0.00 0.00 0.00 0.00 0.01 0.02 0.02 0.02 0.01
0.00 0.00 0.00 0.00 0.00 0.00 0.00 0.00 0.00 0.00 0.00 0.00 0.00 0.00 0.00 0.00 0.00 0.00 0.00 0.00 0.00 0.00 0.00 0.00 0.00 0.00 0.00 0.01 0.04 0.03 0.01 0.00
0.00 0.00 0.00 0.00 0.00 0.00 0.00 0.00 0.00 0.00 0.00 0.00 0.00 0.00 0.00 0.00 0.00 0.00 0.00 0.00 0.00 0.00 0.00 0.00 0.00 0.00 0.00 0.00 0.00 0.00 0.00 0.00
MSLP
1012.79 1012.69 1012.57 1012.50 1012.76 1012.94 1013.12 1013.45 1013.97 1014.44 1014.83 1015.26 1015.72 1015.99 1016.05 1016.13 1016.20 1016.19 1016.16 1016.25 1016.29 1016.30 1016.40 1016.47 1016.51 1016.56 1016.57 1016.60 1016.65 1016.44 1016.12 1015.84
1013.23 1013.09 1013.07 1013.00 1013.32 1013.53 1013.69 1014.00 1014.33 1014.62 1015.28 1015.76 1016.11 1016.55 1016.62 1016.70 1016.63 1016.64 1016.60 1016.45 1016.33 1016.40 1016.40 1016.41 1016.44 1016.68 1016.77 1016.72 1016.58 1016.51 1016.30 1016.08
1013.58 1013.61 1013.56 1013.59 1013.90 1014.19 1014.37 1014.73 1014.94 1015.10 1015.43 1015.92 1016.24 1016.57 1016.81 1016.95 1016.99 1016.84 1016.97 1016.93 1016.81 1016.77 1016.79 1016.74 1016.66 1016.71 1016.61 1016.64 1016.56 1016.38 1016.29 1016.09
1013.42 1013.75 1013.88 1013.97 1014.36 1014.66 1014.89 1015.31 1015.51 1015.68 1015.83 1016.15 1016.58 1016.90 1017.13 1017.37 1017.36 1017.41 1017.34 1017.13 1017.06 1017.05 1016.95 1016.76 1016.69 1016.68 1016.53 1016.49 1016.46 1016.32 1016.18 1016.06
1013.30 1013.71 1014.13 1014.36 1014.66 1014.98 1015.20 1015.58 1015.80 1016.02 1016.13 1016.53 1017.10 1017.62 1018.00 1018.06 1018.01 1017.85 1017.60 1017.35 1017.30 1017.23 1017.16 1016.92 1016.79 1016.91 1016.93 1016.95 1016.88 1016.71 1016.48 1016.40
1013.11 1013.46 1013.85 1014.41 1014.97 1015.23 1015.40 1015.82 1016.20 1016.50 1016.46 1016.71 1017.35 1017.87 1018.21 1018.07 1018.00 1018.02 1017.89 1017.62 1017.40 1017.21 1017.22 1017.05 1017.08 1017.11 1017.06 1017.01 1016.86 1016.76 1016.64 1016.76
1013.34 1013.84 1014.15 1014.61 1015.02 1015.41 1015.71 1016.01 1016.40 1016.49 1016.62 1017.03 1017.39 1017.80 1018.13 1018.29 1018.21 1018.12 1017.95 1017.90 1017.67 1017.43 1017.19 1017.05 1017.01 1017.04 1016.97 1016.84 1016.83 1016.69 1016.67 1016.39
1013.09 1013.76 1014.38 1014.80 1015.25 1015.53 1015.81 1016.06 1016.59 1016.79 1016.92 1017.12 1017.36 1017.63 1017.68 1018.12 1018.29 1018.41 1018.45 1018.16 1017.84 1017.65 1017.46 1017.27 1017.11 1016.81 1016.61 1016.57 1016.56 1016.50 1016.44 1016.20
1013.01 1013.44 1014.08 1014.64 1015.09 1015.47 1015.91 1016.39 1016.75 1016.88 1016.99 1017.27 1017.41 1017.55 1017.73 1018.06 1018.13 1018.16 1018.12 1018.06 1017.82 1017.38 1017.25 1016.94 1016.70 1016.61 1016.52 1016.32 1016.24 1016.13 1015.97 1015.86
1012.66 1013.42 1014.05 1014.75 1015.32 1015.78 1016.18 1016.57 1016.87 1016.92 1016.97 1017.08 1017.22 1017.41 1017.58 1017.79 1017.87 1017.98 1017.95 1017.80 1017.55 1017.33 1017.12 1016.96 1016.58 1016.31 1016.19 1015.93 1015.75 1015.76 1015.62 1015.55
1012.89 1013.66 1014.31 1014.88 1015.36 1015.90 1016.40 1016.68 1016.80 1016.89 1017.07 1017.25 1017.35 1017.44 1017.65 1017.79 1017.80 1017.68 1017.58 1017.47 1017.34 1017.26 1017.14 1016.93 1016.56 1016.21 1015.98 1015.66 1015.44 1015.09 1015.09 1014.92
1012.80 1013.71 1014.45 1015.05 1015.58 1016.04 1016.37 1016.51 1016.69 1016.99 1017.14 1017.16 1017.21 1017.48 1017.62 1017.79 1018.00 1018.06 1018.01 1017.80 1017.56 1017.28 1016.86 1016.54 1016.35 1016.01 1015.58 1015.43 1015.19 1014.96 1014.74 1014.29
1013.16 1013.94 1014.57 1015.24 1015.75 1016.17 1016.35 1016.50 1016.60 1016.85 1016.99 1017.38 1017.73 1017.96 1018.10 1018.10 1018.04 1017.93 1017.76 1017.55 1017.31 1017.04 1016.87 1016.57 1016.14 1015.80 1015.42 1015.14 1014.75 1014.21 1014.31 1014.06
1013.32 1014.23 1014.83 1015.38 1015.99 1016.35 1016.59 1016.78 1017.09 1017.21 1017.43 1017.64 1017.88 1018.07 1018.01 1018.04 1017.93 1017.73 1017.56 1017.39 1017.17 1016.98 1016.74 1016.43 1016.11 1015.56 1015.00 1014.55 1014.35 1013.95 1013.60 1013.26
1013.17 1014.22 1014.98 1015.46 1015.83 1016.20 1016.53 1016.86 1017.02 1017.30 1017.39 1017.69 1017.92 1017.81 1017.92 1018.01 1017.93 1017.79 1017.63 1017.47 1017.19 1016.89 1016.66 1016.32 1015.85 1015.37 1014.72 1014.44 1014.00 1013.60 1013.43 1013.32
1013.21 1014.01 1014.83 1015.42 1015.83 1016.09 1016.32 1016.64 1017.00 1017.10 1017.42 1017.65 1017.84 1018.01 1018.07 1018.12 1018.15 1017.98 1017.72 1017.33 1017.00 1016.80 1016.38 1015.98 1015.67 1015.29 1014.78 1014.35 1013.99 1013.47 1012.97 1012.76
1013.29 1013.95 1014.51 1015.04 1015.48 1015.94 1016.44 1016.86 1017.01 1017.14 1017.56 1017.89 1018.04 1018.15 1018.26 1018.41 1018.31 1017.93 1017.49 1017.28 1017.01 1016.59 1016.16 1015.67 1015.44 1015.27 1014.81 1014.38 1013.97 1013.68 1013.29 1012.90
1013.10 1013.96 1014.52 1014.96 1015.44 1016.03 1016.67 1017.04 1017.27 1017.50 1017.75 1018.14 1018.33 1018.36 1018.42 1018.22 1017.94 1017.65 1017.46 1017.16 1016.65 1016.32 1016.08 1015.91 1015.43 1015.06 1014.50 1014.17 1013.81 1013.44 1013.10 1012.74
1012.94 1013.75 1014.61 1015.22 1015.74 1016.29 1016.87 1017.32 1017.44 1017.53 1018.08 1018.54 1018.57 1018.39 1018.02 1017.63 1017.49 1017.36 1017.23 1016.91 1016.64 1016.49 1016.03 1015.78 1015.30 1014.70 1014.19 1013.82 1013.32 1013.01 1012.63 1012.21
Thickness
5710 5713 5715 5714 5712 5713 5714 5711 5706 5701 5696 5692 5687 5684 5681 5680 5678 5677 5675 5673 5670 5667 5664 5660 5657 5655 5651 5648 5644 5643 5643 5644
5703 5705 5705 5705 5703 5701 5701 5699 5696 5694 5688 5682 5678 5672 5671 5669 5667 5665 5663 5661 5658 5654 5652 5649 5646 5642 5638 5635 5633 5631 5628 5626
5697 5694 5695 5694 5692 5691 5689 5687 5685 5683 5679 5674 5670 5665 5662 5659 5656 5653 5649 5646 5644 5641 5637 5634 5630 5628 5626 5621 5618 5616 5613 5610
5692 5689 5686 5686 5685 5683 5681 5676 5673 5670 5667 5664 5659 5655 5650 5646 5643 5640 5637 5634 5631 5628 5625 5623 5620 5616 5614 5609 5603 5599 5597 5592
5686 5682 5677 5678 5676 5675 5673 5668 5664 5659 5657 5653 5647 5639 5634 5631 5628 5626 5624 5622 5618 5615 5613 5610 5605 5599 5594 5587 5582 5578 5576 5574
5679 5677 5675 5671 5667 5665 5663 5657 5652 5647 5646 5643 5635 5629 5623 5620 5617 5613 5611 5610 5606 5603 5597 5592 5587 5582 5576 5570 5564 5557 5553 5547
5668 5665 5664 5663 5660 5656 5653 5649 5643 5640 5637 5630 5625 5619 5613 5608 5606 5604 5601 5595 5591 5586 5581 5576 5570 5564 5556 5550 5543 5536 5530 5529
5660 5659 5656 5655 5652 5648 5645 5641 5634 5630 5626 5621 5616 5611 5607 5601 5595 5588 5582 5577 5572 5568 5562 5556 5549 5542 5537 5530 5524 5517 5511 5508
5657 5655 5652 5649 5646 5642 5636 5629 5624 5620 5617 5610 5605 5600 5593 5587 5581 5576 5571 5563 5557 5553 5546 5540 5533 5524 5515 5508 5503 5494 5489 5481
5653 5648 5645 5639 5634 5629 5623 5618 5613 5610 5605 5598 5592 5586 5583 5576 5570 5563 5555 5548 5542 5534 5527 5521 5513 5503 5495 5486 5477 5467 5461 5455
5642 5638 5632 5628 5623 5616 5610 5607 5603 5599 5592 5585 5579 5575 5567 5560 5555 5549 5542 5534 5526 5518 5509 5500 5491 5481 5468 5459 5452 5446 5439 5436
5633 5626 5619 5614 5608 5603 5599 5597 5593 5585 5578 5572 5567 5558 5553 5546 5536 5526 5518 5513 5504 5498 5491 5482 5470 5460 5450 5438 5432 5427 5422 5421
5618 5611 5605 5600 5596 5592 5589 5583 5578 5571 5565 5556 5546 5539 5532 5525 5518 5512 5504 5497 5489 5479 5467 5458 5450 5441 5432 5424 5419 5418 5409 5406
5602 5596 5594 5588 5582 5577 5572 5566 5559 5553 5545 5537 5530 5525 5519 5512 5506 5500 5492 5481 5469 5458 5448 5437 5427 5421 5418 5413 5406 5402 5397 5394
5597 5585 5578 5574 5571 5566 5559 5551 5545 5537 5531 5525 5520 5515 5507 5498 5490 5481 5469 5459 5450 5441 5430 5419 5413 5409 5405 5398 5391 5387 5381 5377
5583 5575 5569 5563 5557 5553 5547 5539 5532 5527 5521 5514 5507 5498 5489 5480 5469 5459 5450 5442 5434 5423 5415 5409 5401 5394 5389 5382 5375 5373 5371 5368
5570 5565 5559 5554 5549 5540 5532 5524 5520 5514 5505 5498 5489 5480 5470 5459 5451 5444 5438 5427 5417 5409 5403 5397 5390 5381 5373 5368 5364 5362 5357 5351
5561 5553 5547 5542 5535 5526 5516 5509 5502 5496 5488 5479 5471 5462 5453 5445 5438 5431 5421 5413 5405 5399 5391 5383 5378 5369 5365 5361 5359 5355 5351 5348
5547 5539 5531 5524 5516 5509 5501 5493 5486 5480 5470 5461 5452 5446 5441 5434 5423 5415 5405 5399 5392 5386 5381 5374 5368 5362 5359 5356 5354 5352 5349 5346